Tillbaka till svenska Fidonet
English   Information   Debug  
FILM   0/18
FNEWS_PUBLISH   4482
FN_SYSOP   41747
FN_SYSOP_OLD1   71952
FTP_FIDO   0/2
FTSC_PUBLIC   0/13637
FUNNY   0/4886
GENEALOGY.EUR   0/71
GET_INFO   105
GOLDED   0/408
HAM   0/16100
HOLYSMOKE   0/6791
HOT_SITES   0/1
HTMLEDIT   0/71
HUB203   466
HUB_100   264
HUB_400   39
HUMOR   0/29
IC   0/2851
INTERNET   0/424
INTERUSER   0/3
IP_CONNECT   719
JAMNNTPD   0/233
JAMTLAND   0/47
KATTY_KORNER   0/41
LAN   0/16
LINUX-USER   0/19
LINUXHELP   0/1155
LINUX   0/22125
LINUX_BBS   0/957
mail   18.68
mail_fore_ok   249
MENSA   0/341
MODERATOR   0/102
MONTE   0/992
MOSCOW_OKLAHOMA   0/1245
MUFFIN   0/783
MUSIC   0/321
N203_STAT   936
N203_SYSCHAT   313
NET203   321
NET204   69
NET_DEV   0/10
NORD.ADMIN   0/101
NORD.CHAT   0/2572
NORD.FIDONET   189
NORD.HARDWARE   0/28
NORD.KULTUR   0/114
NORD.PROG   0/32
NORD.SOFTWARE   0/88
NORD.TEKNIK   0/58
NORD   0/453
OCCULT_CHAT   0/93
OS2BBS   0/787
OS2DOSBBS   0/580
OS2HW   0/42
OS2INET   0/37
OS2LAN   0/134
OS2PROG   0/36
OS2REXX   0/113
OS2USER-L   207
OS2   0/4804
OSDEBATE   0/18996
PASCAL   0/490
PERL   0/457
PHP   0/45
POINTS   0/405
POLITICS   0/29554
POL_INC   0/14731
PSION   103
R20_ADMIN   1124
R20_AMATORRADIO   0/2
R20_BEST_OF_FIDONET   13
R20_CHAT   0/893
R20_DEPP   0/3
R20_DEV   399
R20_ECHO2   1399
R20_ECHOPRES   0/35
R20_ESTAT   0/719
R20_FIDONETPROG...
...RAM.MYPOINT
  0/2
R20_FIDONETPROGRAM   0/22
R20_FIDONET   0/248
R20_FILEFIND   0/24
R20_FILEFOUND   0/22
R20_HIFI   0/3
R20_INFO2   3290
R20_INTERNET   0/12940
R20_INTRESSE   0/60
R20_INTR_KOM   0/99
R20_KANDIDAT.CHAT   42
R20_KANDIDAT   28
R20_KOM_DEV   112
R20_KONTROLL   0/13340
R20_KORSET   0/18
R20_LOKALTRAFIK   0/24
R20_MODERATOR   0/1852
R20_NC   76
R20_NET200   245
R20_NETWORK.OTH...
...ERNETS
  0/13
R20_OPERATIVSYS...
...TEM.LINUX
  0/44
R20_PROGRAMVAROR   0/1
R20_REC2NEC   534
R20_SFOSM   0/341
R20_SF   0/108
R20_SPRAK.ENGLISH   0/1
R20_SQUISH   107
R20_TEST   2
R20_WORST_OF_FIDONET   12
RAR   0/9
RA_MULTI   106
RA_UTIL   0/162
REGCON.EUR   0/2056
REGCON   0/13
SCIENCE   0/1206
SF   0/239
SHAREWARE_SUPPORT   0/5146
SHAREWRE   0/14
SIMPSONS   0/169
STATS_OLD1   0/2539.065
STATS_OLD2   0/2530
STATS_OLD3   0/2395.095
STATS_OLD4   0/1692.25
SURVIVOR   0/495
SYSOPS_CORNER   0/3
SYSOP   0/84
TAGLINES   0/112
TEAMOS2   0/4530
TECH   0/2617
TEST.444   0/105
TRAPDOOR   0/19
TREK   0/755
TUB   0/290
UFO   0/40
UNIX   0/1316
USA_EURLINK   0/102
USR_MODEMS   0/1
VATICAN   0/2740
VIETNAM_VETS   0/14
VIRUS   0/378
VIRUS_INFO   0/201
VISUAL_BASIC   0/473
WHITEHOUSE   0/5187
WIN2000   0/101
WIN32   0/30
WIN95   0/4291
WIN95_OLD1   0/70272
WINDOWS   0/1517
WWB_SYSOP   0/419
WWB_TECH   0/810
ZCC-PUBLIC   0/1
ZEC   4

 
4DOS   0/134
ABORTION   0/7
ALASKA_CHAT   0/506
ALLFIX_FILE   0/1313
ALLFIX_FILE_OLD1   0/7997
ALT_DOS   0/152
AMATEUR_RADIO   0/1039
AMIGASALE   0/14
AMIGA   0/331
AMIGA_INT   0/1
AMIGA_PROG   0/20
AMIGA_SYSOP   0/26
ANIME   0/15
ARGUS   0/924
ASCII_ART   0/340
ASIAN_LINK   0/651
ASTRONOMY   0/417
AUDIO   0/92
AUTOMOBILE_RACING   0/105
BABYLON5   0/17862
BAG   135
BATPOWER   0/361
BBBS.ENGLISH   0/382
BBSLAW   0/109
BBS_ADS   0/5290
BBS_INTERNET   0/507
BIBLE   0/3563
BINKD   0/1119
BINKLEY   0/215
BLUEWAVE   0/2173
CABLE_MODEMS   0/25
CBM   0/46
CDRECORD   0/66
CDROM   0/20
CLASSIC_COMPUTER   0/378
COMICS   0/15
CONSPRCY   0/899
COOKING   34293
COOKING_OLD1   0/24719
COOKING_OLD2   0/40862
COOKING_OLD3   0/37489
COOKING_OLD4   0/35496
COOKING_OLD5   9370
C_ECHO   0/189
C_PLUSPLUS   0/31
DIRTY_DOZEN   0/201
DOORGAMES   0/2069
DOS_INTERNET   0/196
duplikat   6002
ECHOLIST   0/18295
EC_SUPPORT   0/318
ELECTRONICS   0/359
ELEKTRONIK.GER   1534
ENET.LINGUISTIC   0/13
ENET.POLITICS   0/4
ENET.SOFT   0/11701
ENET.SYSOP   33971
ENET.TALKS   0/32
ENGLISH_TUTOR   0/2000
EVOLUTION   0/1335
FDECHO   0/217
FDN_ANNOUNCE   0/7068
FIDONEWS   24213
FIDONEWS_OLD1   0/49742
FIDONEWS_OLD2   0/35949
FIDONEWS_OLD3   0/30874
FIDONEWS_OLD4   0/37224
FIDO_SYSOP   12853
FIDO_UTIL   0/180
FILEFIND   0/209
FILEGATE   0/212
Möte HAM, 16100 texter
 lista första sista föregående nästa
Text 3449, 899 rader
Skriven 2010-01-14 23:00:21 av Amsat List (1:323/120.0)
Ärende: [keps]  orb10014.amsa
=============================
[keps]  orb10014.amsa

Return-Path: <keps-bounces@amsat.org>
X-Rcpt: craig.healy@chowda.com
X-UIDL: 1263526294.17680

SB KEPS @ AMSAT  $ORB10014.O
Orbital Elements  10014.OSCAR

HR AMSAT ORBITAL ELEMENTS FOR OSCAR SATELLITES
FROM WA5QGD FORT WORTH,TX January 14, 2010
Send Subscribe/unsubscribe to KEPS at 
http://www.amsat.org/mailman/listinfo/keps
BID: ORB10014.O
TO ALL RADIO AMATEURS BT

Satellite: AO-07
Catalog number: 07530
Epoch time:      10013.85731582
Element set:     678
Inclination:      101.4118 deg
RA of node:       035.6616 deg
Eccentricity:    0.0011917
Arg of perigee:   216.2226 deg
Mean anomaly:     143.8039 deg
Mean motion:   12.53577424 rev/day
Decay rate:       -2.7e-07 rev/day^2
Epoch rev:           60911
Checksum:              276

Satellite: FO-29
Catalog number: 24278
Epoch time:      10014.72820539
Element set:     220
Inclination:      098.5231 deg
RA of node:       224.9973 deg
Eccentricity:    0.0350698
Arg of perigee:   161.8244 deg
Mean anomaly:     199.5807 deg
Mean motion:   13.52946117 rev/day
Decay rate:       -7.4e-07 rev/day^2
Epoch rev:           66235
Checksum:              324

Satellite: SO-33
Catalog number: 25509
Epoch time:      10013.93240210
Element set:    0630
Inclination:      031.4355 deg
RA of node:       300.8009 deg
Eccentricity:    0.0354410
Arg of perigee:   021.1091 deg
Mean anomaly:     340.3768 deg
Mean motion:   14.28278451 rev/day
Decay rate:       2.21e-06 rev/day^2
Epoch rev:           58598
Checksum:              257

Satellite: RS-22
Catalog number: 27939
Epoch time:      10014.69020870
Element set:     987
Inclination:      097.9150 deg
RA of node:       246.4782 deg
Eccentricity:    0.0013453
Arg of perigee:   180.7649 deg
Mean anomaly:     179.3536 deg
Mean motion:   14.63373159 rev/day
Decay rate:       1.03e-06 rev/day^2
Epoch rev:           33650
Checksum:              318

Satellite: VO-52
Catalog number: 28650
Epoch time:      10014.70332337
Element set:     411
Inclination:      097.7153 deg
RA of node:       073.9619 deg
Eccentricity:    0.0028168
Arg of perigee:   059.6060 deg
Mean anomaly:     300.7928 deg
Mean motion:   14.81666284 rev/day
Decay rate:      -1.41e-06 rev/day^2
Epoch rev:           25396
Checksum:              303

Satellite: SO-67
Catalog number: 35870
Epoch time:      10014.75156313
Element set:     353
Inclination:      097.3562 deg
RA of node:       067.4895 deg
Eccentricity:    0.0010314
Arg of perigee:   232.2713 deg
Mean anomaly:     267.0054 deg
Mean motion:   15.22918367 rev/day
Decay rate:       5.44e-06 rev/day^2
Epoch rev:            1811
Checksum:              286

Satellite: HO-68
Catalog number: 36122
Epoch time:      10014.71167106
Element set:      91
Inclination:      100.4937 deg
RA of node:       076.5638 deg
Eccentricity:    0.0007567
Arg of perigee:   328.4904 deg
Mean anomaly:     031.5744 deg
Mean motion:   13.16279815 rev/day
Decay rate:       -4.5e-07 rev/day^2
Epoch rev:             402
Checksum:              281

/EX
SB KEPS @ AMSAT  $ORB10014.D
Orbital Elements  10014.MICROS

HR AMSAT ORBITAL ELEMENTS FOR THE MICROSATS
FROM WA5QGD FORT WORTH,TX January 14, 2010
Send Subscribe/unsubscribe to KEPS at 
http://www.amsat.org/mailman/listinfo/keps
BID: ORB10014.D
TO ALL RADIO AMATEURS BT

Satellite: UO-11
Catalog number: 14781
Epoch time:      10013.71714850
Element set:     150
Inclination:      098.0794 deg
RA of node:       064.8122 deg
Eccentricity:    0.0009385
Arg of perigee:   024.1423 deg
Mean anomaly:     336.0231 deg
Mean motion:   14.79761075 rev/day
Decay rate:       2.99e-06 rev/day^2
Epoch rev:           38896
Checksum:              297

Satellite: AO-16
Catalog number: 20439
Epoch time:      10013.54502199
Element set:    0798
Inclination:      098.3109 deg
RA of node:       337.7170 deg
Eccentricity:    0.0010012
Arg of perigee:   266.0824 deg
Mean anomaly:     093.9212 deg
Mean motion:   14.31844934 rev/day
Decay rate:        1.3e-07 rev/day^2
Epoch rev:           04325
Checksum:              275

Satellite: LO-19
Catalog number: 20442
Epoch time:      10013.84718361
Element set:     707
Inclination:      098.2717 deg
RA of node:       344.4348 deg
Eccentricity:    0.0010977
Arg of perigee:   259.5215 deg
Mean anomaly:     100.4728 deg
Mean motion:   14.32078299 rev/day
Decay rate:       -3.0e-08 rev/day^2
Epoch rev:            4346
Checksum:              296

Satellite: AO-27
Catalog number: 22825
Epoch time:      10014.77267137
Element set:     433
Inclination:      098.4677 deg
RA of node:       326.8467 deg
Eccentricity:    0.0008370
Arg of perigee:   007.9019 deg
Mean anomaly:     352.2295 deg
Mean motion:   14.29282890 rev/day
Decay rate:      -1.20e-06 rev/day^2
Epoch rev:           85013
Checksum:              309

Satellite: IO-26
Catalog number: 22826
Epoch time:      10013.81558029
Element set:    0168
Inclination:      098.4591 deg
RA of node:       326.5775 deg
Eccentricity:    0.0009072
Arg of perigee:   005.1576 deg
Mean anomaly:     354.9709 deg
Mean motion:   14.29537424 rev/day
Decay rate:        3.0e-08 rev/day^2
Epoch rev:           85010
Checksum:              306

Satellite: GO-32
Catalog number: 25397
Epoch time:      10014.55342893
Element set:      87
Inclination:      098.3164 deg
RA of node:       030.4442 deg
Eccentricity:    0.0001476
Arg of perigee:   032.6796 deg
Mean anomaly:     327.4464 deg
Mean motion:   14.23169549 rev/day
Decay rate:       -2.9e-07 rev/day^2
Epoch rev:           59819
Checksum:              319

